This is the latest recevied weather packets stored in our database for station/object K8RLH. If no packets are shown the sender has not sent any weather packets the latest 10 day(s).
| Time | Temp. | Humidity | Pressure | Rain* | Wind** | Luminosity | Snow |
|---|---|---|---|---|---|---|---|
| 1777589111 | 22.78° C | 62% | 1011.2 hPa | 0 mm | - | 51 W/m² | - |
| 1777588807 | 22.78° C | 62% | 1011.3 hPa | 0 mm | - | 61 W/m² | - |
| 1777588503 | 22.78° C | 63% | 1011.3 hPa | 0 mm | - | 55 W/m² | - |
| 1777588198 | 22.78° C | 62% | 1011.4 hPa | 0 mm | - | 55 W/m² | - |
| 1777587894 | 22.78° C | 61% | 1011.3 hPa | 0 mm | - | 72 W/m² | - |
| 1777587590 | 23.33° C | 61% | 1011.3 hPa | 0 mm | - | 72 W/m² | - |
| 1777587285 | 22.78° C | 60% | 1011.5 hPa | 0 mm | - | 76 W/m² | - |
| 1777586981 | 22.78° C | 59% | 1011.3 hPa | 0 mm | - | 75 W/m² | - |
| 1777586677 | 23.33° C | 58% | 1011 hPa | 0 mm | - | 81 W/m² | - |
| 1777586372 | 23.33° C | 59% | 1011.2 hPa | 0 mm | - | 84 W/m² | - |
| 1777586072 | 23.33° C | 57% | 1011.2 hPa | 0 mm | - | 71 W/m² | - |
| 1777585770 | 23.33° C | 58% | 1011.2 hPa | 0 mm | - | 90 W/m² | - |
| 1777585465 | 23.33° C | 57% | 1011 hPa | 0 mm | - | 92 W/m² | - |
| 1777585162 | 23.33° C | 56% | 1010.9 hPa | 0 mm | - | 89 W/m² | - |
| 1777584857 | 23.33° C | 55% | 1011.1 hPa | 0 mm | - | 91 W/m² | - |
| 1777584555 | 23.33° C | 56% | 1011 hPa | 0 mm | - | 107 W/m² | - |
| 1777584251 | 23.33° C | 56% | 1011 hPa | 0 mm | - | 99 W/m² | - |
| 1777583950 | 23.89° C | 56% | 1011 hPa | 0 mm | - | 191 W/m² | - |
| 1777583647 | 24.44° C | 51% | 1011.1 hPa | 0 mm | - | 107 W/m² | - |
| 1777583345 | 23.89° C | 54% | 1010.9 hPa | 0 mm | - | 169 W/m² | - |
| 1777583041 | 23.89° C | 55% | 1011.2 hPa | 0 mm | - | 265 W/m² | - |
| 1777582738 | 23.33° C | 54% | 1011.2 hPa | 0 mm | - | 278 W/m² | - |
| 1777582433 | 23.33° C | 54% | 1011.3 hPa | 0 mm | - | 200 W/m² | - |
| 1777582133 | 23.33° C | 52% | 1011.3 hPa | 0 mm | - | 266 W/m² | - |
| 1777581832 | 23.89° C | 51% | 1011.3 hPa | 0 mm | - | 193 W/m² | - |
* Rain latest hour (hover to see other rain measurements)
** Current wind speed in m/s (hover to see current wind gust speed)